Simultaneous Nadir Overpasses (SNOs) Predictions

Prediction of SNOs between GOES-16 and NOAA-20 Satellite Orbit:

Table of predicted SNOs for the next 14.0 days since TLE Epoch: 2/26/2022
Index Date Time (GOES-16) GOES-16 Lat,Lon NOAA-20 Lat,Lon Distance(km) Time Diff (sec)
1 02/26/2022 18:32:45 0.07, -75.21 -0.40, -77.20 226.60 80
2 02/27/2022 18:16:41 0.07, -75.21 0.62, -72.67 289.79 80
3 03/01/2022 06:38:30 -0.06, -75.21 0.56, -77.94 311.55 80
4 03/02/2022 06:17:07 -0.06, -75.22 -0.45, -73.41 205.24 80
5 03/03/2022 18:39:05 0.05, -75.24 -0.72, -78.72 396.83 80
6 03/04/2022 18:23:02 0.06, -75.25 0.30, -74.20 120.67 80
7 03/06/2022 06:44:51 -0.05, -75.27 0.88, -79.47 478.77 80
8 03/07/2022 06:23:28 -0.05, -75.28 -0.14, -74.94 38.86 80
9 03/09/2022 18:26:41 0.05, -75.33 -0.06, -75.71 44.34 80
10 03/10/2022 18:10:38 0.05, -75.35 0.97, -71.19 473.87 80
